SCP
0 0 0 -0 -0 -0 -0 -0 -0 -0 -0 -0 -0 -0 -0 -0 -0 -0 -0 -0 -0 -0 -0 -0 -0 -0 -0 -0 -0 -0 -0 -0 -0 -0 -0 -0 -0 -0 -0 -0 -0 -0 -0
0 0 0 0 -0 -0 0 -0 -0 -0 -0 -0 -0 -0 -0 -0 -0 -0 -0 -0 -0 -0 -0 -0 -0 -0 -0 -0 -0 -0 -0 -0 -0 -0 -0 -0 -0 -0 -0 -0 -0 -0 -0
-0 0 0 -0 -0 -0 -0 -0 -0 -0 -0 -0 -0 -0 -0 -0 -0 -0 -0 -0 -0 -0 -0 -0 -0 -0 -0 -0 -0 -0 -0 -0 -0 -0 -0 0 -0 -0 -0 -0 -0 -0 -0
-0 0 0 -0 -0 -0 -0 -0 -0 -0 -0 -0 -0 -0 -0 -0 -0 -0 -0 -0 -0 -0 -0 -0 -0 -0 -0 -0 -0 -0 -0 -0 -0 -0 0 -0 -0 -0 -0 -0 -0 -0 -0
-0 -0 0 -0 -0 -0 -0 -0 -0 -0 -0 -0 -0 -0 -0 -0 -0 -0 -0 -0 -0 -0 -0 -0 -0 -0 -0 -0 -0 -0 -0 -0 -0 -0 0 -0 0 -0 -0 -0 -0 -0 -0
-0 -0 -0 -0 -0 -0 -0 -0 -0 -0 -0 -0 -0 -0 -0 -0 -0 -0 -0 -0 -0 -0 -0 -0 -0 -0 -0 -0 -0 -0 -0 -0 -0 0 0 0 0 -0 -0 -0 -0 -0 -0
-0 -0 -0 -0 -0 -0 -0 -0 -0 -0 -0 -0 -0 -0 -0 -0 -0 -0 -0 -0 -0 -0 -0 -0 -0 -0 -0 -0 -0 -0 -0 -0 0 0 0 0 0 -0 -0 -0 -0 -0 -0
-0 -0 -0 -0 0 -0 -0 -0 -0 -0 -0 -0 -0 -0 -0 -0 -0 -0 -0 -0 -0 -0 -0 -0 -0 -0 -0 -0 -0 -0 -0 -0 0 0 0 0 -0 -0 -0 -0 -0 -0 -0
-0 -0 0 0 0 0 0 -0 -0 -0 -0 -0 -0 -0 -0 -0 -0 -0 -0 -0 -0 -0 -0 -0 -0 -0 -0 -0 -0 -0 -0 -0 0 0 0 0 -0 -0 -0 -0 -0 -0 -0
-0 -0 0 0 0 0 0 0 0 -0 -0 -0 -0 -0 -0 -0 -0 -0 -0 -0 -0 -0 -0 -0 -0 -0 -0 -0 -0 -0 -0 -0 0 0 0 0 -0 -0 -0 -0 -0 -0 -0
0 -0 0 0 0 0 0 0 0 0 0 0 0 0 0 0 0 0 0 -0 -0 -0 -0 -0 -0 -0 -0 -0 -0 -0 -0 0 0 0 0 0 -0 -0 -0 -0 0 0 0
0 0 0 0 0 0 0 0 0 0 0 0 0 0 0 0 0 0 0 0 0 0 -0 -0 0 -0 0 0 0 0 0 0 0 0 0 0 -0 0 0 0 0 0 0
0 0 0 0 0 0 0 0 0 0 0 0 0 0 0 0 0 0 0 0 0 0 0 0 0 0 0 0 0 0 0 0 0 0 0 0 0 0 0 0 0 0 0
0 0 0 0 0 0 0 0 0 0 0 0 0 0 0 0 0 0 0 0 0 0 0 0 0 0 0 0 0 0 0 0 0 0 0 0 0 0 0 0 0 0 0
0 0 0 0 0 -0 0 0 0 0 0 0 0 0 0 0 0 0 0 0 0 0 0 0 0 0 0 0 0 0 0 0 0 0 0 0 0 0 0 0 0 0 0
0 0 0 0 0 0 0 0 0 0 0 0 0 0 0 0 0 0 0 0 0 0 0 0 0 0 0 0 0 0 0 0 0 0 0 0 0 0 0 0 0 0 0
0 0 0 0 0 0 0 0 0 0 0 0 0 0 0 0 0 0 0 0 0 0 0 0 0 0 0 0 0 0 0 0 0 0 0 0 0 0 0 0 0 0 0
0 0 0 0 0 0 0 0 0 0 0 0 0 0 0 0 0 0 0 0 0 0 0 0 0 0 0 0 0 0 0 0 0 0 0 0 0 0 0 0 0 0 0
0 0 0 0 0 0 0 0 0 0 0 0 0 0 0 0 0 0 0 0 0 0 0 0 0 0 0 0 0 0 0 0 0 0 0 0 0 0 0 0 0 0 0
0 0 0 0 0 0 0 0 0 0 0 0 0 0 0 0 0 0 0 0 0 0 0 0 0 0 0 0 0 0 0 0 0 0 0 0 0 0 0 0 0 0 0
0 0 0 0 0 0 0 0 0 0 0 0 0 0 0 0 0 0 0 0 0 0 0 0 0 0 0 0 0 0 0 0 0 0 0 0 0 0 0 0 0 0 0
0 0 0 0 0 0 0 0 0 0 0 0 0 0 0 0 0 0 0 0 0 0 0 0 0 0 0 0 0 0 0 0 0 0 0 0 0 0 0 0 0 0 0
0 0 0 0 0 0 0 0 0 0 0 0 0 0 0 0 0 0 0 0 0 0 0 0 0 0 0 0 0 0 0 0 0 0 0 0 0 0 0 0 0 0 0
0 0 0 0 0 0 0 0 0 0 0 0 0 0 0 0 0 0 0 0 0 0 0 0 0 0 0 0 0 0 0 0 0 0 0 0 0 0 0 0 0 0 0
0 0 0 0 0 0 0 0 0 0 0 0 0 0 0 0 0 0 0 0 0 0 0 0 0 0 0 0 0 0 0 0 0 0 0 0 0 0 0 0 0 0 0
0 0 0 0 0 0 0 0 0 0 0 0 0 0 0 0 0 0 0 0 0 0 0 0 0 0 0 0 0 0 0 0 0 0 0 0 0 0 0 0 0 0 0
Wind_Speed_500mb
28 26 23 19 23 20 20 23 25 27 29 30 29 29 26 27 35 30 26 24 27 35 37 37 39 41 43 43 42 37 34 31 30 35 43 49 51 52 48 46 45 43 42
31 32 27 25 23 20 18 24 25 27 28 30 31 29 28 30 33 29 22 20 22 34 36 38 40 43 48 48 43 39 32 32 29 26 27 37 39 45 46 48 50 51 51
32 38 31 27 24 19 19 23 25 26 27 29 30 29 29 30 37 28 21 21 28 34 36 38 40 43 45 43 45 38 29 31 31 31 29 33 36 30 34 38 40 46 45
31 39 34 31 25 20 20 20 23 25 26 27 29 28 27 30 34 29 22 23 29 34 37 39 41 43 43 37 39 35 24 29 34 35 37 36 37 33 26 27 25 27 30
31 36 33 30 25 21 19 19 22 23 24 26 27 27 27 28 27 27 20 25 30 32 36 40 42 44 40 35 34 33 25 30 41 45 48 49 49 44 39 33 29 29 34
28 32 32 31 27 22 20 19 20 20 20 22 24 25 25 25 24 21 21 23 27 31 34 37 40 40 38 38 34 31 38 43 48 53 54 53 53 51 52 49 56 51 49
25 30 32 31 28 24 21 18 18 17 18 19 19 21 22 22 22 20 22 24 27 30 32 34 37 38 34 32 32 32 44 41 47 55 59 50 42 36 38 39 38 43 45
31 25 27 31 29 25 23 20 18 16 15 16 17 18 18 18 18 19 22 24 26 28 30 32 36 33 31 28 28 35 38 36 44 43 40 43 34 30 33 32 33 36 40
31 32 28 36 33 28 25 22 20 17 15 14 15 15 16 19 21 22 23 26 28 29 29 29 28 28 27 24 24 21 29 28 27 32 30 26 20 22 31 32 47 48 47
30 33 28 37 37 34 30 25 22 18 16 16 15 14 15 19 23 25 25 26 27 28 28 27 24 24 24 19 13 13 20 32 35 38 34 20 29 37 40 42 42 44 48
37 34 33 39 39 36 32 29 25 22 20 15 12 12 11 15 19 22 23 24 24 24 26 26 23 22 20 17 12 14 13 23 32 39 32 35 29 30 35 40 45 45 46
48 43 40 37 40 40 37 34 32 30 28 22 16 12 8 11 15 15 17 17 17 17 20 18 14 12 13 12 13 14 20 26 40 44 34 29 25 24 33 36 44 45 45
54 49 42 41 35 40 40 40 40 38 36 25 25 22 16 12 10 11 10 13 12 10 10 10 8 5 5 5 12 17 21 28 33 43 37 23 16 22 32 37 41 44 45
57 50 47 47 42 44 40 42 43 42 40 34 30 31 27 19 15 13 13 12 11 7 4 3 1 1 1 2 11 21 23 26 30 37 34 27 28 26 33 35 38 41 42
57 54 49 52 46 44 47 51 47 45 42 41 39 36 31 23 18 17 16 22 17 12 9 7 8 5 4 4 16 25 26 27 30 34 36 37 32 34 31 34 35 39 42
57 56 49 55 57 52 51 50 48 46 42 47 46 41 37 34 30 31 27 28 24 16 14 13 11 11 8 6 16 28 28 32 34 34 22 33 34 37 35 33 34 37 41
59 57 62 57 61 60 60 53 49 47 47 49 49 47 44 42 38 38 37 32 30 26 22 19 15 14 13 14 17 25 33 35 38 37 27 32 19 23 37 33 34 37 38
60 64 65 64 65 62 62 61 56 51 52 52 52 48 46 45 45 43 43 39 38 32 26 23 18 14 15 21 23 27 34 35 38 36 34 32 22 13 27 40 37 35 36
60 68 70 70 70 70 71 66 61 54 57 55 53 51 46 46 45 50 52 48 48 45 35 30 27 27 23 28 27 29 30 32 34 35 33 29 21 15 9 13 26 40 36
63 66 72 74 75 76 80 74 67 63 64 59 60 57 55 52 47 50 54 54 54 55 41 38 40 34 33 34 33 32 36 38 37 33 30 27 23 17 15 16 16 22 39
64 67 73 79 81 83 83 88 76 79 74 72 64 60 57 59 56 46 55 54 54 58 48 49 52 45 43 41 44 39 31 31 32 30 29 24 22 21 20 19 17 12 13
58 70 74 79 83 85 83 82 86 87 82 75 68 65 61 62 59 58 52 53 53 54 67 57 60 55 51 50 50 44 32 28 30 27 28 28 26 24 23 23 20 18 17
65 63 72 77 80 84 83 81 83 84 84 81 77 75 70 64 63 62 58 63 61 62 67 72 68 67 52 60 56 44 24 23 40 33 33 33 30 28 26 26 25 22 21
67 57 60 67 75 81 81 82 82 86 87 87 85 80 73 71 71 69 60 71 66 70 71 68 75 70 63 64 63 70 46 30 33 30 43 40 37 34 32 32 30 27 24
54 53 56 68 74 78 80 79 73 71 74 78 79 77 77 74 71 68 68 71 71 74 69 71 74 73 73 78 68 76 72 45 37 33 41 52 48 42 37 35 33 32 28
47 48 49 57 64 69 71 70 68 64 63 71 74 73 74 74 74 73 72 75 76 74 73 70 76 77 74 81 75 80 83 73 59 47 36 49 50 44 42 40 38 35 30
Wind_Direction_500mb
178 171 164 143 136 128 106 97 85 82 80 79 81 83 87 87 95 90 85 70 70 75 81 84 85 88 90 90 86 83 84 84 90 90 93 89 88 84 82 81 80 79 81
162 171 161 149 141 127 116 100 90 80 77 76 78 83 91 86 102 95 76 60 78 78 82 84 87 92 94 92 85 79 78 79 85 97 98 97 92 91 89 91 88 84 83
165 167 160 151 140 132 123 110 99 93 86 82 81 84 89 90 100 93 87 69 74 80 82 87 91 95 98 98 88 84 77 71 84 90 101 100 93 95 96 96 96 94 95
172 168 160 154 146 135 119 109 98 94 89 88 88 87 86 91 103 99 91 83 83 84 85 88 92 96 100 100 94 89 78 71 79 87 88 89 90 90 96 87 83 84 87
171 168 160 156 150 138 126 117 107 103 99 96 94 91 90 97 107 106 103 87 86 88 90 93 97 101 101 92 86 81 76 81 80 79 77 76 75 75 78 77 78 80 78
163 174 165 164 159 150 140 127 119 112 104 99 97 97 97 97 99 103 92 95 92 92 94 98 102 106 104 97 82 76 91 88 89 86 82 81 82 82 80 85 87 86 89
160 164 173 171 168 160 151 142 131 120 113 109 103 97 94 93 97 99 96 95 95 94 95 98 104 112 116 112 102 103 102 99 97 96 94 91 87 87 88 88 90 94 92
164 177 182 179 177 171 166 159 150 138 127 121 114 108 102 99 100 101 103 102 99 97 98 103 111 121 119 115 110 115 104 107 103 99 99 96 92 92 96 87 92 88 88
178 185 194 187 182 181 178 172 165 157 148 135 122 111 103 103 107 108 105 103 101 99 101 106 115 121 125 128 128 121 122 131 119 109 100 104 100 89 88 87 84 89 92
181 190 200 196 188 186 184 181 175 169 159 146 130 114 107 110 110 109 108 107 104 101 103 109 116 120 127 135 137 120 120 126 116 99 92 90 96 93 85 91 88 84 82
188 198 202 205 194 192 190 185 183 178 166 162 145 122 102 116 118 116 112 113 106 101 104 110 112 121 129 133 129 120 124 127 121 106 97 107 98 94 95 88 87 86 83
192 194 203 203 201 197 196 196 191 187 176 180 189 181 153 119 127 125 126 125 117 108 107 105 95 98 126 144 156 165 143 125 124 113 110 109 99 97 92 90 83 82 81
199 201 203 206 210 211 202 202 199 193 184 192 206 200 194 191 157 169 147 145 140 132 109 91 95 77 44 124 159 173 154 138 135 125 118 113 113 101 92 89 86 82 81
206 214 200 204 211 211 207 209 209 201 195 195 208 211 201 194 199 202 191 190 177 169 160 147 58 262 351 144 152 155 158 148 141 140 136 131 119 104 93 88 87 85 82
211 215 208 204 210 217 212 212 216 210 206 201 206 212 211 206 206 207 216 232 214 208 203 226 203 220 234 176 164 171 161 163 158 159 159 150 137 113 102 91 90 87 85
218 217 215 207 209 216 224 224 223 218 213 208 213 215 215 210 213 202 220 228 220 216 221 218 209 202 216 208 176 183 180 169 174 179 187 170 159 117 105 99 93 90 87
220 220 217 216 212 217 225 230 229 226 221 216 217 218 221 221 221 225 219 218 229 221 219 221 216 211 214 211 198 189 192 188 183 193 198 190 188 143 106 100 99 92 88
223 222 220 221 217 217 221 227 230 229 226 225 224 218 220 222 227 232 230 231 228 228 228 227 228 224 234 214 199 190 190 195 198 203 197 196 203 188 148 124 104 96 94
227 223 223 222 219 218 218 224 228 227 225 226 229 225 224 218 227 232 234 232 229 220 218 223 227 229 235 206 200 200 194 196 202 198 202 206 207 195 168 156 142 119 106
228 226 225 226 224 220 222 222 228 219 222 223 222 224 227 228 228 233 237 236 232 221 210 230 221 219 222 210 198 186 188 191 198 203 207 206 202 195 178 163 155 144 119
225 224 225 226 225 225 226 223 217 222 221 226 222 224 235 233 235 233 237 243 239 233 219 227 219 216 210 208 196 179 177 191 201 205 214 213 210 205 195 179 169 144 134
231 224 225 228 230 232 233 232 226 227 230 230 230 230 236 237 236 237 236 245 231 245 220 244 221 207 212 211 203 189 186 198 205 207 210 211 212 208 203 195 184 164 143
228 228 228 230 232 234 234 235 235 232 232 233 229 228 237 238 239 239 241 236 244 233 239 236 236 222 236 220 214 207 188 205 200 205 211 214 212 210 204 198 189 175 163
223 227 232 232 231 234 237 238 240 239 236 235 235 235 236 241 239 235 243 236 234 246 247 236 240 228 239 229 215 215 218 210 183 194 211 213 212 211 206 200 192 186 179
216 224 229 230 234 237 242 243 243 241 241 241 240 240 242 242 240 241 239 234 234 240 243 246 230 234 236 231 231 216 218 212 211 205 205 208 209 207 205 202 197 192 187
218 224 229 233 237 240 244 247 248 248 244 240 240 238 237 238 240 238 238 241 241 238 240 244 237 233 247 233 231 229 226 224 219 208 212 209 212 210 206 206 203 199 195
Wind_Speed_850mb
28 26 23 19 23 20 20 23 25 27 29 30 29 29 26 27 35 30 26 24 27 35 37 37 39 41 43 43 42 37 34 31 30 35 43 49 51 52 48 46 45 43 42
31 32 27 25 23 20 18 24 25 27 28 30 31 29 28 30 33 29 22 20 22 34 36 38 40 43 48 48 43 39 32 32 29 26 27 37 39 45 46 48 50 51 51
32 38 31 27 24 19 19 23 25 26 27 29 30 29 29 30 37 28 21 21 28 34 36 38 40 43 45 43 45 38 29 31 31 31 29 33 36 30 34 38 40 46 45
31 39 34 31 25 20 20 20 23 25 26 27 29 28 27 30 34 29 22 23 29 34 37 39 41 43 43 37 39 35 24 29 34 35 37 36 37 33 26 27 25 27 30
31 36 33 30 25 21 19 19 22 23 24 26 27 27 27 28 27 27 20 25 30 32 36 40 42 44 40 35 34 33 25 30 41 45 48 49 49 44 39 33 29 29 34
28 32 32 31 27 22 20 19 20 20 20 22 24 25 25 25 24 21 21 23 27 31 34 37 40 40 38 38 34 31 38 43 48 53 54 53 53 51 52 49 56 51 49
25 30 32 31 28 24 21 18 18 17 18 19 19 21 22 22 22 20 22 24 27 30 32 34 37 38 34 32 32 32 44 41 47 55 59 50 42 36 38 39 38 43 45
31 25 27 31 29 25 23 20 18 16 15 16 17 18 18 18 18 19 22 24 26 28 30 32 36 33 31 28 28 35 38 36 44 43 40 43 34 30 33 32 33 36 40
31 32 28 36 33 28 25 22 20 17 15 14 15 15 16 19 21 22 23 26 28 29 29 29 28 28 27 24 24 21 29 28 27 32 30 26 20 22 31 32 47 48 47
30 33 28 37 37 34 30 25 22 18 16 16 15 14 15 19 23 25 25 26 27 28 28 27 24 24 24 19 13 13 20 32 35 38 34 20 29 37 40 42 42 44 48
37 34 33 39 39 36 32 29 25 22 20 15 12 12 11 15 19 22 23 24 24 24 26 26 23 22 20 17 12 14 13 23 32 39 32 35 29 30 35 40 45 45 46
48 43 40 37 40 40 37 34 32 30 28 22 16 12 8 11 15 15 17 17 17 17 20 18 14 12 13 12 13 14 20 26 40 44 34 29 25 24 33 36 44 45 45
54 49 42 41 35 40 40 40 40 38 36 25 25 22 16 12 10 11 10 13 12 10 10 10 8 5 5 5 12 17 21 28 33 43 37 23 16 22 32 37 41 44 45
57 50 47 47 42 44 40 42 43 42 40 34 30 31 27 19 15 13 13 12 11 7 4 3 1 1 1 2 11 21 23 26 30 37 34 27 28 26 33 35 38 41 42
57 54 49 52 46 44 47 51 47 45 42 41 39 36 31 23 18 17 16 22 17 12 9 7 8 5 4 4 16 25 26 27 30 34 36 37 32 34 31 34 35 39 42
57 56 49 55 57 52 51 50 48 46 42 47 46 41 37 34 30 31 27 28 24 16 14 13 11 11 8 6 16 28 28 32 34 34 22 33 34 37 35 33 34 37 41
59 57 62 57 61 60 60 53 49 47 47 49 49 47 44 42 38 38 37 32 30 26 22 19 15 14 13 14 17 25 33 35 38 37 27 32 19 23 37 33 34 37 38
60 64 65 64 65 62 62 61 56 51 52 52 52 48 46 45 45 43 43 39 38 32 26 23 18 14 15 21 23 27 34 35 38 36 34 32 22 13 27 40 37 35 36
60 68 70 70 70 70 71 66 61 54 57 55 53 51 46 46 45 50 52 48 48 45 35 30 27 27 23 28 27 29 30 32 34 35 33 29 21 15 9 13 26 40 36
63 66 72 74 75 76 80 74 67 63 64 59 60 57 55 52 47 50 54 54 54 55 41 38 40 34 33 34 33 32 36 38 37 33 30 27 23 17 15 16 16 22 39
64 67 73 79 81 83 83 88 76 79 74 72 64 60 57 59 56 46 55 54 54 58 48 49 52 45 43 41 44 39 31 31 32 30 29 24 22 21 20 19 17 12 13
58 70 74 79 83 85 83 82 86 87 82 75 68 65 61 62 59 58 52 53 53 54 67 57 60 55 51 50 50 44 32 28 30 27 28 28 26 24 23 23 20 18 17
65 63 72 77 80 84 83 81 83 84 84 81 77 75 70 64 63 62 58 63 61 62 67 72 68 67 52 60 56 44 24 23 40 33 33 33 30 28 26 26 25 22 21
67 57 60 67 75 81 81 82 82 86 87 87 85 80 73 71 71 69 60 71 66 70 71 68 75 70 63 64 63 70 46 30 33 30 43 40 37 34 32 32 30 27 24
54 53 56 68 74 78 80 79 73 71 74 78 79 77 77 74 71 68 68 71 71 74 69 71 74 73 73 78 68 76 72 45 37 33 41 52 48 42 37 35 33 32 28
47 48 49 57 64 69 71 70 68 64 63 71 74 73 74 74 74 73 72 75 76 74 73 70 76 77 74 81 75 80 83 73 59 47 36 49 50 44 42 40 38 35 30
Wind_Direction_850mb
178 171 164 143 136 128 106 97 85 82 80 79 81 83 87 87 95 90 85 70 70 75 81 84 85 88 90 90 86 83 84 84 90 90 93 89 88 84 82 81 80 79 81
162 171 161 149 141 127 116 100 90 80 77 76 78 83 91 86 102 95 76 60 78 78 82 84 87 92 94 92 85 79 78 79 85 97 98 97 92 91 89 91 88 84 83
165 167 160 151 140 132 123 110 99 93 86 82 81 84 89 90 100 93 87 69 74 80 82 87 91 95 98 98 88 84 77 71 84 90 101 100 93 95 96 96 96 94 95
172 168 160 154 146 135 119 109 98 94 89 88 88 87 86 91 103 99 91 83 83 84 85 88 92 96 100 100 94 89 78 71 79 87 88 89 90 90 96 87 83 84 87
171 168 160 156 150 138 126 117 107 103 99 96 94 91 90 97 107 106 103 87 86 88 90 93 97 101 101 92 86 81 76 81 80 79 77 76 75 75 78 77 78 80 78
163 174 165 164 159 150 140 127 119 112 104 99 97 97 97 97 99 103 92 95 92 92 94 98 102 106 104 97 82 76 91 88 89 86 82 81 82 82 80 85 87 86 89
160 164 173 171 168 160 151 142 131 120 113 109 103 97 94 93 97 99 96 95 95 94 95 98 104 112 116 112 102 103 102 99 97 96 94 91 87 87 88 88 90 94 92
164 177 182 179 177 171 166 159 150 138 127 121 114 108 102 99 100 101 103 102 99 97 98 103 111 121 119 115 110 115 104 107 103 99 99 96 92 92 96 87 92 88 88
178 185 194 187 182 181 178 172 165 157 148 135 122 111 103 103 107 108 105 103 101 99 101 106 115 121 125 128 128 121 122 131 119 109 100 104 100 89 88 87 84 89 92
181 190 200 196 188 186 184 181 175 169 159 146 130 114 107 110 110 109 108 107 104 101 103 109 116 120 127 135 137 120 120 126 116 99 92 90 96 93 85 91 88 84 82
188 198 202 205 194 192 190 185 183 178 166 162 145 122 102 116 118 116 112 113 106 101 104 110 112 121 129 133 129 120 124 127 121 106 97 107 98 94 95 88 87 86 83
192 194 203 203 201 197 196 196 191 187 176 180 189 181 153 119 127 125 126 125 117 108 107 105 95 98 126 144 156 165 143 125 124 113 110 109 99 97 92 90 83 82 81
199 201 203 206 210 211 202 202 199 193 184 192 206 200 194 191 157 169 147 145 140 132 109 91 95 77 44 124 159 173 154 138 135 125 118 113 113 101 92 89 86 82 81
206 214 200 204 211 211 207 209 209 201 195 195 208 211 201 194 199 202 191 190 177 169 160 147 58 262 351 144 152 155 158 148 141 140 136 131 119 104 93 88 87 85 82
211 215 208 204 210 217 212 212 216 210 206 201 206 212 211 206 206 207 216 232 214 208 203 226 203 220 234 176 164 171 161 163 158 159 159 150 137 113 102 91 90 87 85
218 217 215 207 209 216 224 224 223 218 213 208 213 215 215 210 213 202 220 228 220 216 221 218 209 202 216 208 176 183 180 169 174 179 187 170 159 117 105 99 93 90 87
220 220 217 216 212 217 225 230 229 226 221 216 217 218 221 221 221 225 219 218 229 221 219 221 216 211 214 211 198 189 192 188 183 193 198 190 188 143 106 100 99 92 88
223 222 220 221 217 217 221 227 230 229 226 225 224 218 220 222 227 232 230 231 228 228 228 227 228 224 234 214 199 190 190 195 198 203 197 196 203 188 148 124 104 96 94
227 223 223 222 219 218 218 224 228 227 225 226 229 225 224 218 227 232 234 232 229 220 218 223 227 229 235 206 200 200 194 196 202 198 202 206 207 195 168 156 142 119 106
228 226 225 226 224 220 222 222 228 219 222 223 222 224 227 228 228 233 237 236 232 221 210 230 221 219 222 210 198 186 188 191 198 203 207 206 202 195 178 163 155 144 119
225 224 225 226 225 225 226 223 217 222 221 226 222 224 235 233 235 233 237 243 239 233 219 227 219 216 210 208 196 179 177 191 201 205 214 213 210 205 195 179 169 144 134
231 224 225 228 230 232 233 232 226 227 230 230 230 230 236 237 236 237 236 245 231 245 220 244 221 207 212 211 203 189 186 198 205 207 210 211 212 208 203 195 184 164 143
228 228 228 230 232 234 234 235 235 232 232 233 229 228 237 238 239 239 241 236 244 233 239 236 236 222 236 220 214 207 188 205 200 205 211 214 212 210 204 198 189 175 163
223 227 232 232 231 234 237 238 240 239 236 235 235 235 236 241 239 235 243 236 234 246 247 236 240 228 239 229 215 215 218 210 183 194 211 213 212 211 206 200 192 186 179
216 224 229 230 234 237 242 243 243 241 241 241 240 240 242 242 240 241 239 234 234 240 243 246 230 234 236 231 231 216 218 212 211 205 205 208 209 207 205 202 197 192 187
218 224 229 233 237 240 244 247 248 248 244 240 240 238 237 238 240 238 238 241 241 238 240 244 237 233 247 233 231 229 226 224 219 208 212 209 212 210 206 206 203 199 195